Reflectivity
-20 -20 -20 -20 -20 -20 -20 -20 -20 -20 -20 -20 -20 -20 -20 -20 -20 -20 -20 -20 -20 -20 1 -20 -20 -20 -20 -20 -8 -0 -18 -1 -10 -20 -20 -20 -20 -3 -17 -20 -20 -20 -20 14 4 9 17 -3 1
-20 -20 -20 -20 -20 -20 -20 -20 -20 -20 -20 -20 -20 -20 -20 -20 -20 -20 -20 -20 -20 -20 -20 -20 -9 -2 -20 -20 -20 -9 -20 -20 3 -20 2 -16 -20 -20 4 -20 -8 13 -20 6 12 14 6 -20 -20
-20 -20 -20 -20 -20 -20 -20 -20 -20 -20 -20 -20 -20 -20 -20 -20 -20 -20 -20 -20 -20 -20 -20 -20 -20 -12 -7 -20 -20 -20 -20 -20 -8 -6 6 -20 -2 -20 -6 -14 9 10 -20 5 -2 -20 -20 -20 -20
-20 -20 -20 -20 -20 -20 -20 -20 -20 -20 -20 -20 -20 -20 -20 -20 -20 -20 -20 -20 -20 -20 -20 -20 -20 -20 -20 -20 -20 -20 -20 -20 -20 -20 -19 -20 -20 2 -20 -20 -20 -12 -20 -20 -20 -20 -20 -20 -20
-20 -20 -20 -20 -20 -20 -20 -20 -20 -20 -20 -20 -20 -20 -20 -12 -20 -20 -20 -20 -20 -20 -20 -20 -20 -20 -0 -20 -20 -20 2 -20 -20 -20 -19 -20 -5 -13 -20 -20 -20 -20 -20 -20 -20 -20 -20 -20 -20
-20 -20 -20 -20 -20 -20 -20 -20 -20 -20 -20 -20 -20 -20 -20 -20 -20 -20 3 -20 -20 -20 -20 -20 -20 -20 -20 -20 -20 -20 -20 -20 -20 -20 -20 -20 -20 -16 -20 -20 -20 -20 -20 -20 -20 -20 -20 -20 -20
-20 -20 -20 -20 -20 -20 -20 -20 -20 -20 -20 -20 -20 -20 -20 -20 -20 -20 11 30 -20 -20 -20 -20 -20 -20 -20 -20 -20 -20 11 -20 -20 -20 -20 -11 -20 -20 -20 -20 -20 -20 -20 -20 -20 -20 -20 -20 -20
-20 -20 -20 -20 -20 -20 -20 -20 -20 -20 -20 -20 -20 -20 -20 -20 -20 -20 -20 -20 29 29 30 -20 -20 -20 -20 -20 -20 -20 -20 -20 -20 -20 -20 -20 -20 -20 -20 -20 -20 -20 -20 -20 -20 -20 -20 -20 -20
-20 -20 -20 -20 -20 -20 -20 -20 -20 -20 -20 -20 -20 -20 -20 -20 -20 -20 -20 -20 -20 20 26 26 23 -20 -20 -20 -20 -20 -20 -20 -14 -3 -18 -6 5 -20 -20 -20 -20 -20 -20 -20 -20 -20 -20 -20 -20
-20 -20 -20 -20 -20 -20 -20 -20 -20 -20 -20 -20 -20 -20 -20 -20 -20 -20 -20 -20 -20 -20 -20 28 1 -20 -20 -5 -11 -4 12 -20 -20 -11 14 -18 -20 -20 -20 -20 -20 -20 -20 -20 -20 -20 -20 -20 -20
-20 -20 -20 -20 -20 -20 -20 -20 -20 -20 -20 -20 -20 -20 -20 -20 -20 -20 -20 -20 -20 -20 -20 23 28 -20 30 25 -11 -18 -20 -16 -20 -20 12 -20 -20 -20 -20 -20 -20 -20 -20 -20 -20 -20 -20 -20 -20
-20 -20 -20 -20 -20 -20 -20 -20 -20 -20 -20 -20 -20 -20 -20 -20 -20 -20 -20 -20 -20 -20 -20 -20 18 2 -14 29 7 4 4 -20 -20 -20 0 -20 -20 -20 -20 -20 -20 -20 -20 -20 -20 -20 -20 -20 -20
-20 -20 -20 -20 -20 -20 -20 -20 -20 -20 -20 -20 -20 -20 -20 -20 -20 -20 -20 -20 -20 -20 -20 -20 -20 7 27 29 28 6 -17 -14 -20 -20 -20 -7 -20 -20 -20 -20 -20 -20 -20 -20 -20 -20 -20 -20 -20
-20 -20 -20 -20 -20 -20 -20 -20 -20 -20 -20 -20 -20 -20 -20 -20 -20 -20 -20 -20 -20 -20 -20 -20 -20 -20 -17 20 17 28 -2 -20 -20 -20 -20 -20 -4 -20 -20 -20 -20 -20 -20 -20 -20 -20 -20 -20 -20
-20 -20 -20 -20 -20 -20 -20 -20 -20 -20 -20 -20 -20 -20 -20 -20 -20 -20 -20 -20 -20 -20 -20 -20 -20 -20 -20 -17 10 27 -3 5 8 -11 -20 -20 -20 -20 -20 -20 -20 -20 -20 -20 -20 -20 -20 -20 -20
-20 -20 -20 -20 -20 -20 -20 -20 -20 -20 -20 -20 -20 -20 -20 -20 -20 -20 -20 -20 -20 -20 -20 -20 -20 -20 -20 -20 22 38 12 24 23 20 19 -20 -20 -20 -20 -20 -20 -20 -20 -20 -20 -20 -20 -20 -20
-20 -20 -20 -20 -20 -20 -20 -20 -20 -20 -20 -20 -20 -20 -20 -20 -20 -20 -20 -20 -20 -20 -20 -20 -20 -20 -20 -20 -3 30 32 26 25 31 21 22 -20 -20 -20 -20 -20 -20 -20 -20 -20 -20 -20 -20 -20
-20 -20 -20 -20 -20 -20 -20 -20 -20 -20 -20 -20 -20 -20 -20 -20 -20 -20 -20 -20 -20 -20 -20 -20 -20 -20 -20 -20 -20 21 23 29 31 19 24 16 -20 4 -20 -20 -20 -20 -20 -20 -20 -20 -20 -20 -20
-20 -20 -20 -20 -20 -20 -20 -20 -20 -20 -20 -20 -20 -20 -20 -20 -20 -20 -20 -20 -20 -20 -20 -20 -20 -20 -20 -20 -20 -4 -0 16 15 32 25 19 -0 -20 -20 -20 -20 -20 -20 -20 -20 -20 -20 -20 -20
-20 -20 -20 -20 -20 -20 -20 -20 -20 -20 -20 -20 -20 -20 -20 -20 -20 -20 -20 -20 -20 -20 -20 -20 -20 -20 -20 -20 -20 -20 -2 -10 -6 33 35 25 23 19 -9 -20 -20 -20 -20 -20 -20 -20 -20 -20 -20
-20 -20 -20 -20 -20 -20 -20 -20 -20 -20 -20 -20 -20 -20 -20 -20 -20 -20 -20 -20 -20 -20 -20 -20 -20 -20 -20 -20 -20 -20 -10 10 13 24 22 44 26 31 -5 -20 -16 -15 -20 -20 -20 -20 -20 -20 -20
-20 -20 -20 -20 -3 -20 -20 -20 -20 -20 -20 -20 -20 -20 -20 -20 -20 -20 -20 -20 -20 -20 -20 -20 -20 -20 -20 -20 -20 -20 -18 -17 17 8 31 7 33 24 -19 -16 -6 -19 -20 -20 -20 -20 -20 -20 -20
-20 -20 -20 -7 -4 4 -20 -1 -20 -20 -20 -20 -20 -20 -20 -20 -20 -20 -20 -20 -20 -20 -20 -20 -19 3 -20 29 -20 -20 -1 8 6 6 24 34 31 31 7 -5 -20 -20 -20 -9 -20 -20 -20 -20 -13
-20 -8 -20 -16 -4 -7 -20 -17 -20 -20 4 -14 -20 -20 -20 -20 -20 -20 -20 -20 -20 -20 -20 -20 -20 -20 -20 -14 -19 -9 -19 17 37 27 13 29 34 23 -5 -10 -20 -15 -20 -13 -20 -20 -20 -19 -19
-9 -6 -20 -20 -20 -20 -20 13 -20 -17 14 15 -3 -20 -20 -20 -20 -20 -20 -20 -20 -20 -20 -20 -20 -20 6 2 11 -12 19 32 33 34 25 33 22 18 -9 -20 -20 -19 -8 -13 -20 -20 -20 -20 -20
-20 0 -20 -20 -20 -20 -20 -11 -20 19 31 14 22 -20 -1 -20 -20 -20 -20 15 -20 -20 -20 -20 -20 6 -6 -6 -20 13 29 42 26 29 38 30 2 9 13 7 6 9 7 2 5 -16 -20 -20 -20
-10 -5 10 -6 -17 7 -20 -20 -20 10 13 15 16 30 26 -17 -20 -20 -20 -20 -20 -20 -20 -5 -11 19 20 0 -15 24 31 43 37 41 28 24 4 3 16 20 16 10 7 7 -20 -11 -18 -20 -20
15 4 -6 4 -16 -17 -12 -17 10 14 21 15 30 17 11 -1 -20 -20 -20 -20 -20 16 28 20 24 11 19 6 20 16 38 37 36 28 23 1 -7 -20 -20 0 3 -7 8 -3 5 25 -20 -20 -6
-1 -7 1 -6 -17 8 -3 -13 29 30 32 34 22 15 10 -17 -20 -20 -20 10 14 28 33 23 32 32 29 26 12 15 29 28 22 30 23 14 9 -2 -5 8 -0 -20 -19 13 6 -1 -15 20 -15
-19 32 7 -20 -19 -20 -10 -3 29 35 34 36 30 24 6 21 -8 -13 21 34 39 39 31 30 31 23 21 23 16 27 28 29 27 17 13 23 3 3 -1 -13 -18 29 -18 29 27 6 -11 9 -20
Wind_Speed
6 5 1 5 5 4 4 6 3 5 2 2 8 5 7 3 6 5 2 7 13 17 14 15 19 23 23 20 19 17 17 15 16 18 19 20 21 18 17 17 17 18 17 17 19 19 19 20 19
5 4 5 3 5 2 6 5 6 2 5 9 5 4 4 5 1 1 5 9 18 16 14 13 19 21 22 22 22 19 20 16 16 16 17 18 19 18 17 17 17 16 18 18 18 17 17 17 14
5 0 5 5 4 7 5 4 1 6 8 5 6 4 3 1 0 6 2 14 14 15 14 13 18 20 20 21 21 21 20 18 17 15 16 17 18 18 18 15 16 18 18 17 17 17 15 13 14
3 5 4 4 9 6 5 3 5 7 6 5 5 6 9 6 2 6 10 13 12 13 12 15 18 19 20 19 19 20 20 19 19 16 16 16 18 18 19 17 17 17 18 17 17 15 12 12 13
4 3 2 2 7 5 3 5 5 7 5 5 5 6 7 9 13 6 12 10 11 11 11 14 18 19 18 19 18 18 21 19 18 18 17 17 18 19 21 18 17 16 17 16 16 14 11 11 12
3 3 2 5 5 3 6 6 3 4 5 8 7 6 4 5 16 12 6 9 11 12 10 12 16 20 20 20 19 18 19 19 17 18 18 18 18 20 20 19 16 17 17 16 14 12 11 11 13
5 4 4 3 3 4 4 3 3 3 4 4 6 5 2 8 4 7 6 4 6 9 11 10 10 13 18 18 19 19 19 18 18 17 18 17 18 20 20 19 17 16 16 14 13 11 11 10 12
4 4 2 5 5 7 3 6 3 3 6 5 2 4 3 7 13 4 7 5 3 5 8 10 8 9 12 13 17 17 17 16 17 15 13 14 16 18 18 17 17 16 15 14 12 11 11 9 11
3 2 4 4 4 4 6 7 2 5 3 5 3 5 3 9 12 15 7 6 5 2 3 5 9 6 7 9 11 14 16 15 13 12 14 13 9 11 14 11 16 17 15 14 13 11 9 9 10
4 4 7 5 2 3 7 6 9 4 6 7 4 9 4 6 8 9 9 8 7 4 3 5 6 9 6 8 9 10 10 10 9 8 12 7 9 9 9 11 13 16 15 14 13 11 8 7 4
3 5 4 5 6 7 7 11 5 5 10 5 11 9 19 6 6 7 8 6 4 5 4 3 2 5 8 8 6 5 5 6 7 11 10 10 8 8 6 6 6 5 7 4 6 5 3 5 4
2 3 4 4 6 7 11 8 12 9 8 8 10 8 12 14 2 3 7 8 4 4 4 2 3 3 6 5 7 7 6 7 7 11 11 9 7 9 8 6 6 5 3 5 4 3 4 4 4
3 3 5 6 7 6 9 11 10 14 9 9 11 14 14 19 7 6 7 7 6 5 4 3 1 1 4 5 8 8 8 9 9 11 13 10 10 10 10 9 6 5 4 4 4 4 4 4 4
3 5 6 4 8 7 11 14 6 3 9 14 14 16 15 19 15 6 7 7 7 7 7 6 4 1 6 4 9 9 8 8 9 9 12 15 11 9 9 8 7 6 6 5 4 4 4 3 3
5 6 7 7 6 5 9 20 16 10 10 17 17 17 19 21 22 17 9 10 10 9 8 8 7 6 4 4 2 10 9 10 8 9 13 15 13 12 11 9 8 7 6 6 5 4 2 2 2
4 2 3 4 2 6 6 26 14 15 15 18 17 16 17 20 21 22 13 11 11 11 9 9 7 8 6 5 5 4 4 7 9 8 9 14 15 15 12 10 9 8 6 6 5 4 4 4 4
3 3 4 7 6 6 8 15 5 6 8 14 14 14 15 18 21 20 16 11 13 14 14 10 8 9 8 8 7 7 6 4 8 9 8 13 15 15 13 11 9 9 7 6 6 3 4 3 3
5 3 5 7 3 4 16 27 26 19 17 20 21 20 18 19 21 19 18 11 14 14 15 15 11 9 8 7 9 8 9 4 8 10 9 15 13 16 13 11 11 10 7 5 4 5 2 4 4
4 6 12 17 13 13 21 25 27 21 19 21 22 21 19 19 18 17 17 14 14 16 16 16 14 10 6 4 6 8 10 10 8 8 15 16 15 16 15 11 11 11 9 10 10 4 6 2 4
8 11 19 16 12 6 15 30 24 25 23 22 23 23 23 21 17 16 16 16 14 17 17 18 17 14 11 6 7 5 8 9 9 11 11 16 17 18 15 14 12 12 9 9 8 6 4 3 5
11 9 16 16 17 10 13 17 9 7 10 15 21 24 21 20 18 15 15 18 13 15 16 17 17 15 14 14 8 7 7 6 11 10 12 14 18 18 17 15 12 11 11 10 10 8 7 4 3
9 11 17 10 6 4 5 12 8 7 8 4 9 10 15 17 16 14 13 13 13 16 13 14 14 14 14 14 12 16 11 11 13 17 9 12 18 16 16 14 13 12 9 10 9 7 5 5 6
11 5 9 13 12 12 4 6 10 6 8 17 20 14 11 14 15 13 12 12 14 13 12 13 13 11 13 14 14 14 15 9 12 17 19 14 15 17 16 15 14 13 9 9 9 8 8 4 5
8 10 11 10 4 3 5 6 8 7 18 24 18 14 13 12 10 10 9 8 8 9 11 10 10 8 11 11 14 15 16 17 11 15 15 11 11 10 14 15 13 11 9 9 9 7 8 6 5
1 3 4 6 5 6 2 4 8 10 18 20 20 16 12 10 7 7 7 7 8 9 10 9 11 14 9 13 8 12 5 20 16 16 14 15 11 10 12 13 11 9 9 8 8 8 7 7 6
3 3 4 4 2 4 3 8 5 9 17 19 22 14 10 7 6 6 7 8 9 12 10 10 14 14 15 10 8 10 7 7 9 12 13 12 12 12 13 12 12 11 10 9 9 6 5 6 5
1 3 2 4 4 2 3 7 3 14 21 21 21 21 10 6 6 7 6 7 8 7 11 13 16 16 15 11 11 10 5 4 9 10 11 11 12 10 11 12 12 11 11 11 10 7 8 7 5
5 4 1 2 5 4 5 5 9 23 23 20 22 21 17 11 7 8 8 7 6 7 6 12 14 15 15 13 10 11 12 10 9 10 11 12 10 11 13 12 12 12 11 11 10 7 7 8 6
2 2 2 2 1 2 3 3 8 17 18 18 20 20 17 12 9 7 6 3 4 7 11 10 8 9 10 14 12 10 14 13 15 8 10 11 11 12 14 14 14 13 13 11 11 10 9 8 7
2 4 4 2 6 2 3 3 14 17 18 14 17 22 18 9 4 6 2 6 8 12 12 10 6 5 6 7 10 11 12 10 14 13 9 10 12 11 12 12 13 13 12 12 12 10 10 9 9
Wind_Direction
343 315 37 41 67 63 257 248 273 296 247 50 319 280 241 233 248 234 354 176 135 153 159 160 159 154 154 151 148 150 143 147 141 136 134 134 132 134 135 132 129 126 128 117 110 108 111 108 106
357 336 42 81 100 181 257 228 214 252 315 309 273 278 263 278 114 193 123 172 150 153 156 161 161 158 156 154 152 153 149 153 147 144 147 143 140 138 139 135 140 135 126 116 117 116 108 107 99
326 319 91 124 158 212 211 229 82 336 318 345 355 275 280 248 312 169 224 149 149 151 156 159 160 161 158 157 156 154 154 156 150 154 147 149 144 139 141 132 122 125 122 118 118 118 117 101 93
26 16 27 125 220 254 204 178 35 352 344 33 325 339 330 317 207 193 141 137 146 150 155 159 159 162 160 159 161 156 156 156 154 155 154 150 146 138 131 123 121 121 119 120 123 122 118 96 90
39 61 108 205 250 255 248 294 13 322 291 341 320 299 310 349 350 112 135 141 150 151 153 159 160 162 163 160 163 160 156 160 158 159 157 153 149 137 129 126 124 129 124 123 124 121 114 96 85
57 95 131 211 248 262 293 313 34 335 332 326 9 338 282 305 43 350 316 148 158 154 157 166 165 162 164 165 162 165 159 162 162 161 160 154 150 138 133 130 127 125 125 122 127 124 118 103 92
119 105 198 208 252 278 247 349 48 6 318 309 311 322 286 15 5 43 6 357 149 148 157 167 175 166 164 167 165 165 165 163 163 164 161 153 148 139 139 133 133 131 129 130 135 136 130 117 98
116 106 207 202 218 266 278 344 296 326 287 304 314 271 348 341 332 45 54 41 265 168 160 166 168 174 169 165 163 165 163 164 162 162 151 140 144 142 139 136 136 136 135 136 142 143 139 128 99
108 112 208 217 186 256 353 350 8 328 287 323 291 293 62 11 4 358 6 7 31 251 198 175 163 174 181 168 166 163 160 155 155 149 140 135 142 138 135 138 137 138 141 141 144 146 143 134 115
133 166 205 209 250 278 304 297 303 335 330 290 284 305 331 18 15 359 348 349 345 357 259 215 174 165 172 174 166 167 170 166 152 152 150 142 140 140 134 136 138 140 144 144 149 152 148 136 123
181 200 216 260 278 281 277 292 264 274 284 233 291 299 304 0 21 351 333 331 310 310 347 345 282 161 190 183 170 166 156 159 146 147 152 143 137 132 136 138 137 137 136 146 142 141 149 154 140
253 260 247 263 269 280 280 281 275 245 251 256 270 272 287 300 272 283 289 290 291 300 304 324 325 272 194 190 175 172 163 168 162 157 152 150 145 149 150 148 147 143 151 148 150 154 165 180 173
224 275 309 303 291 277 276 266 263 273 283 263 278 287 285 289 279 201 223 259 269 246 231 257 256 166 222 205 173 173 178 174 170 166 155 157 153 159 158 158 158 150 149 158 162 167 182 199 209
325 319 293 293 279 261 266 271 252 236 292 285 277 275 279 281 282 210 214 233 239 244 223 203 221 173 204 188 199 170 180 173 171 173 163 161 157 160 159 157 160 163 169 165 164 181 192 223 210
302 303 306 259 252 263 293 275 258 277 264 265 259 256 259 262 274 261 201 218 212 225 226 203 191 181 183 186 239 174 173 163 171 177 173 157 159 164 160 160 165 174 180 165 165 185 188 179 182
331 340 291 281 235 247 154 271 271 260 258 262 262 259 260 262 259 269 246 207 222 220 211 209 194 181 180 175 167 176 177 167 169 183 182 164 164 166 163 164 171 177 181 173 174 167 174 182 163
344 246 252 296 228 237 201 279 254 252 256 268 265 257 255 257 256 256 255 203 212 214 206 212 201 185 183 161 172 185 215 203 190 181 184 178 170 167 167 171 172 178 184 180 177 163 152 158 142
228 251 237 250 281 302 281 272 273 267 255 257 260 253 248 252 249 247 252 213 210 216 209 204 201 192 186 165 160 164 199 205 212 189 188 182 178 171 174 171 173 179 184 175 165 150 156 147 163
229 247 266 273 277 276 266 268 272 269 254 252 248 248 247 240 240 237 239 238 206 213 209 199 195 200 182 166 170 172 181 199 210 195 200 184 178 178 179 176 170 181 182 189 177 138 143 126 159
244 269 272 277 273 243 275 275 270 268 258 250 249 247 241 243 237 233 238 242 201 208 207 203 200 195 197 192 190 173 178 186 201 181 216 190 181 180 181 178 178 179 176 172 167 147 138 139 174
249 248 270 268 305 270 275 276 259 249 239 248 249 246 244 239 232 229 231 235 206 204 199 195 195 191 194 200 189 190 200 185 198 202 190 192 187 181 180 179 179 175 177 179 175 161 153 149 184
269 235 249 268 297 268 61 294 278 300 318 345 333 292 248 239 242 239 229 222 206 207 198 196 193 188 201 194 185 191 199 192 202 196 192 180 183 181 177 175 174 175 178 168 179 171 168 142 165
238 223 236 276 262 293 265 244 277 355 339 328 314 306 294 235 227 225 230 215 212 199 190 193 193 191 196 199 194 194 199 177 198 182 175 184 177 181 169 167 168 172 172 174 173 173 171 160 156
266 291 279 267 264 261 227 176 287 342 326 319 310 295 290 284 230 223 219 206 197 191 187 186 189 193 201 213 191 186 187 172 189 164 164 177 174 171 171 167 173 169 165 171 176 172 170 169 145
181 280 329 356 8 237 224 215 260 332 323 309 294 293 288 289 259 238 241 212 192 194 192 183 187 203 193 188 193 178 134 180 174 162 168 172 174 176 174 165 163 164 168 166 161 168 176 173 169
270 207 164 255 309 277 3 328 291 325 314 322 326 265 271 294 300 273 233 181 202 194 189 187 191 195 189 184 171 173 177 177 161 167 166 171 172 174 166 167 166 168 159 158 159 162 168 158 158
255 230 214 265 226 270 290 286 289 328 336 342 344 341 330 302 271 266 239 203 216 194 192 195 194 183 174 162 167 154 111 282 166 178 174 169 170 167 161 163 166 163 161 162 164 167 167 162 158
234 326 309 236 335 334 292 310 322 332 332 334 335 326 314 289 259 236 227 201 216 207 165 165 166 170 162 166 179 165 155 214 200 177 174 168 166 160 161 165 164 163 159 161 164 169 161 165 180
325 315 258 264 319 313 309 333 332 323 322 322 322 319 319 296 259 242 239 234 206 153 146 131 155 136 171 186 201 171 175 185 180 171 176 168 163 166 168 168 169 169 166 165 166 173 166 186 174
180 2 335 32 355 317 302 338 341 327 325 327 332 330 333 354 196 215 202 169 134 162 116 116 87 110 118 142 144 160 198 167 171 159 152 168 165 171 172 172 177 171 169 176 169 169 176 178 174